TimeMDT,TemperatureF,Dew PointF,Humidity,Sea Level PressureIn,VisibilityMPH,Wind Direction,Wind SpeedMPH,Gust SpeedMPH,PrecipitationIn,Events,Conditions,WindDirDegrees,DateUTC
12:53 AM,48.9,23.0,36,29.81,10.0,SW,6.9,-,N/A,,Clear,220,2013-04-29 06:53:00
1:53 AM,48.0,21.9,36,29.78,10.0,WSW,4.6,-,N/A,,Clear,250,2013-04-29 07:53:00
2:53 AM,44.1,21.9,42,29.75,10.0,North,3.5,-,N/A,,Clear,10,2013-04-29 08:53:00
3:53 AM,42.1,21.9,45,29.73,10.0,Calm,Calm,-,N/A,,Clear,0,2013-04-29 09:53:00
4:53 AM,45.0,19.9,37,29.71,10.0,Calm,Calm,-,N/A,,Partly Cloudy,0,2013-04-29 10:53:00
5:53 AM,48.0,23.0,37,29.69,10.0,WNW,6.9,-,N/A,,Clear,290,2013-04-29 11:53:00
6:53 AM,46.0,28.9,51,29.68,10.0,NW,9.2,-,N/A,,Clear,320,2013-04-29 12:53:00
7:53 AM,46.9,30.0,52,29.69,10.0,West,13.8,-,N/A,,Mostly Cloudy,280,2013-04-29 13:53:00
8:53 AM,46.0,35.1,66,29.67,10.0,WSW,13.8,-,N/A,,Mostly Cloudy,240,2013-04-29 14:53:00
9:53 AM,50.0,36.0,59,29.63,10.0,West,8.1,-,0.01,,Mostly Cloudy,260,2013-04-29 15:53:00
10:53 AM,52.0,34.0,50,29.62,10.0,West,15.0,20.7,0.00,,Scattered Clouds,270,2013-04-29 16:53:00
11:38 AM,46.4,30.2,53,29.60,10.0,West,20.7,39.1,N/A,,Overcast,260,2013-04-29 17:38:00
11:53 AM,48.0,30.9,52,29.62,10.0,West,19.6,31.1,N/A,,Mostly Cloudy,260,2013-04-29 17:53:00
12:53 PM,55.9,27.0,33,29.59,10.0,West,18.4,32.2,N/A,,Clear,280,2013-04-29 18:53:00
1:53 PM,57.0,10.9,16,29.57,10.0,West,29.9,57.5,N/A,,Clear,270,2013-04-29 19:53:00
2:53 PM,54.0,14.0,21,29.60,10.0,WNW,34.5,44.9,N/A,,Mostly Cloudy,290,2013-04-29 20:53:00
3:53 PM,51.1,19.0,28,29.63,10.0,WNW,27.6,39.1,N/A,,Overcast,290,2013-04-29 21:53:00
4:53 PM,48.0,19.0,32,29.69,10.0,West,23.0,41.4,N/A,,Overcast,260,2013-04-29 22:53:00
5:53 PM,48.0,19.0,32,29.71,10.0,WNW,33.4,43.7,N/A,,Scattered Clouds,300,2013-04-29 23:53:00
6:53 PM,46.0,15.1,29,29.75,10.0,WNW,28.8,39.1,N/A,,Clear,290,2013-04-30 00:53:00
7:53 PM,41.0,19.0,41,29.79,10.0,West,23.0,41.4,N/A,,Clear,270,2013-04-30 01:53:00
8:53 PM,39.9,16.0,38,29.81,10.0,West,21.9,32.2,N/A,,Clear,270,2013-04-30 02:53:00
9:53 PM,39.0,16.0,39,29.84,10.0,West,17.3,33.4,N/A,,Clear,280,2013-04-30 03:53:00
10:53 PM,37.9,15.1,39,29.85,10.0,West,17.3,29.9,N/A,,Clear,280,2013-04-30 04:53:00
11:53 PM,37.0,14.0,39,29.87,10.0,West,16.1,24.2,N/A,,Clear,270,2013-04-30 05:53:00